Regional Weather Roundup
Issued by NWS

Home | Current Version | Previous Version | Graphics & Text | Print | Product List | Glossary On
Versions: 1 2 3 4 5 6 7 8 9 10 11 12 13 14 15 16 17 18 19 20 21 22 23 24 25 26 27 28 29 30 31 32 33 34 35 36 37 38 39 40 41 42 43 44 45 46 47 48 49 50
000
ASUS43 KLMK 280002
RWRKY
KENTUCKY REGIONAL WEATHER ROUNDUP
NATIONAL WEATHER SERVICE LOUISVILLE KY
800 PM EDT TUE SEP 27 2016

NOTE "FAIR" INDICATES FEW OR NO CLOUDS BELOW 12,000 FEET
WITH NO SIGNIFICANT WEATHER AND/OR OBSTRUCTIONS TO VISIBILITY.

KYZ001>023-026-027-061>063-070>075-280100-
WESTERN AND SOUTH CENTRAL KENTUCKY

CITY           SKY/WX    TMP DP  RH WIND       PRES   REMARKS
PADUCAH        CLEAR     69  50  50 SW3       29.90S
HENDERSON      PTCLDY    66  46  48 SW7       29.87S
OWENSBORO      NOT AVBL
HOPKINSVILLE   CLEAR     68  48  48 S5        29.92F
BOWLING GREEN  CLEAR     68  44  42 CALM      29.92S
GLASGOW        NOT AVBL
$$

KYZ024-025-028>034-038-045-046-053-280100-
NORTH CENTRAL KENTUCKY

CITY           SKY/WX    TMP DP  RH WIND       PRES   REMARKS
LOUISVILLE/SDF PTCLDY    71  45  39 SW9       29.88S
LOUISVILLE/LOU CLEAR     71  46  40 S7        29.89R
FORT KNOX      CLEAR     63  49  59 S6        29.88S
$$

KYZ035>037-039>044-047>052-055>060-089>105-280100-
NORTHEAST KENTUCKY

CITY           SKY/WX    TMP DP  RH WIND       PRES   REMARKS
LEXINGTON      CLEAR     66  41  40 SW6       29.91R
COVINGTON      MOCLDY    66  47  50 SW5       29.86S
FRANKFORT      CLEAR     65  46  50 S3        29.89R
$$

KYZ054-064>069-076>088-106>120-280100-
SOUTHEAST KENTUCKY

CITY           SKY/WX    TMP DP  RH WIND       PRES   REMARKS
JACKSON        CLEAR     66  42  41 W3        29.93R
LONDON         CLEAR     64  42  44 CALM      29.93R
SOMERSET       CLEAR     64  43  45 CALM      29.94R
MIDDLESBORO    CLEAR     62  49  62 W3        29.94R
MONTICELLO     CLEAR     58  46  64 VRB3      29.95R
$$





USA.gov is the U.S. government's official web portal to all federal, state and local government web resources and services.